Voltar ao catálogo

ONEWEB-0434

AtivoComunicaçõesPO
NORAD 51631·PAYLOAD·🇬🇧 United Kingdom

Lançado Feb 10, 2022 de Guiana Space Centre

Loading…

Próximas Passagens (próximas 24 horas)

TLE

AtualizadoSource: CelesTrak SupGP

Época: Sep 14, 2026, 23:48 UTC

1 51631C 22012K   26257.99218009 -.00002904  00000+0 -83295-2 0  2575
2 51631  87.8908  18.4138 0002087 119.8970 275.7051 13.10375709    19

Acompanhe ONEWEB-0434 em tempo real com AllMySat

Download on the App Store